THOR ABLESTAR DEB, 148

Orbit data source: Space-Track

THOR ABLESTAR DEB, 148 is space debris in LEO originally from a launch on Thu, 29 Jun 1961 UTC launched from the Air Force Eastern Test Range (AFETR). Debris objects in space refer to the collection of defunct objects orbiting the Earth. Examples of debris include non-operational satellites, rocket bodies, and fragments generated from explosions, collisions, or faulty payload assembly.

Loading next visibility...
Identifier
148, 1961-015AJ
Orbit
LEO
Last TLE update
17 hours ago
Origin
Manufacturer
Unknown
Mission
Spacecraft
Bus & Motor
Unknown
Mass
Unknown
Launch date (UTC)
1961-06-29 (64 years ago)
Launch vehicle
Unknown
Launch site
Air Force Eastern Test Range (AFETR)
Object type
Payload
Rocket body
Debris
Shape & HBR
Unknown
Radar Cross Section
Medium (>0.1 m² and <1 m²)

Expand to show TLE details & history

TLE from 17 hours ago
0 THOR ABLESTAR DEB
1 00148U 61015AJ  25189.67879904  .00001048  00000-0  58974-3 0  9990
2 00148  65.7733 297.1423 0136148 141.9506 219.1287 14.10053151710530
Epoch: 2025-07-08T16:17Z
TLE epoch observation values (Epoch: 2025-07-08T16:17:28.237Z)
Latitude
0.00001°
Longitude
125.90432°
Altitude
938.176 km
Speed
7.344 km/s
True Right ascension
19h 48m 34s
True Declination
0° 00' 00"
Sunlit
Object was in full shadow at epoch
Visualization orbit readout
Latitude
-63.17534°
Longitude
6.37294°
Altitude
924.882 km
Speed
7.367 km/s
Apparent Right ascension
10h 07m 09s
Apparent Declination
-54° 04' 14"
Sunlit
Object is in daylight
Visualization observer readout
Local Sidereal Time
20:58:50
Azimuth
213.424° SW
Elevation
-71.767°
Doppler factor
1
Orbital elements
Apogee altitude
956.203 km
Perigee altitude
759.174 km
Semi-major axis
7,235.825 km
Eccentricity
0.01361
Inclination
65.7733°
RAAN
297.1423°
Arg. of periapsis
141.9506°
True anomaly
Unknown
Mean anomaly
219.1287°
Eccentric anomaly
Unknown
Mean motion
3.52623 °/min
Orbital period
102.09 mins
BSTAR
0.00058974
Loading maneuver chart data...
Loading SW <> Apogee altitude chart data...

THOR ABLESTAR DEB Visibility forecast

Observer location: undefined°, undefined°

Span
Click to sort rows by Start time (UTC) header in descending order
Start Az.
Max El. time (UTC)
Max El. Az.
Max El.
End time (UTC)
End Az.
10 mins2025-07-09 09:27:06.665Z229.457° WSW2025-07-09 09:32:06.665Z287.455° WNW37.598°2025-07-09 09:37:06.665Z17.84° NNE
7 mins2025-07-09 16:40:06.665Z3.331° NNE2025-07-09 16:43:06.665Z47.374° ENE22.214°2025-07-09 16:47:06.665Z99.551° ESE
8 mins2025-07-09 18:25:06.665Z310.97° NW2025-07-09 18:28:06.665Z254.675° W36.851°2025-07-09 18:33:06.665Z172.383° S
8 mins2025-07-10 07:34:06.665Z156.641° SSE2025-07-10 07:38:06.665Z104.303° ESE23.859°2025-07-10 07:42:06.665Z57.106° ENE
|